Location: Berlin
(52.5170°N, 13.4000°E)
Time: 01:21:44
(UTC+02:00)

ISS - Pass Details

Date: 22 July 2018
Orbit: 402 x 408 km, 51.6° (Epoch: 18 July)

Event Time Altitude Azimuth Distance (km) Brightness Sun altitude
Rises 03:42:38 0° 279° (W) 2,331 -0.2 -10.2°
Reaches altitude 10° 03:45:10 10° 260° (W) 1,468 -1.4 -10.0°
Maximum altitude 03:47:26 18° 216° (SW) 1,096 -2.3 -9.8°
Drops below altitude 10° 03:49:43 10° 172° (S) 1,464 -1.4 -9.6°
Sets 03:52:14 0° 152° (SSE) 2,321 -0.2 -9.4°
